Retour au catalogue

SOLRAD 11B

LostScienceMEO
NORAD 8749·PAYLOAD·🇺🇸 United States

Lancé Mar 15, 1976 depuis Cape Canaveral Space Force Station

Loading…

Prochains Passages (prochaines 24 heures)

TLE

PériméSource: Space-Track

Époque: Mar 27, 1976, 08:41 UTC

1 08749U 76023D   76087.36180556 -.00000524  00000-0  00000-0 0  9990
2 08749  25.1859  41.8762 0042607 117.6028 158.8834  0.20212142    14

Suivez SOLRAD 11B en temps réel avec AllMySat

Download on the App Store